Regional Weather Roundup
Issued by NWS Glasgow, MT

Home | Current Version | Previous Version | Text Only | Print | Product List | Glossary On
Versions: 1 2 3 4 5 6 7 8 9 10 11 12 13 14 15 16 17 18 19 20 21 22 23 24 25 26 27 28 29 30 31 32 33 34 35 36 37 38 39 40 41 42 43 44 45 46 47 48 49 50
000
ASUS45 KGGW 050215
RWRGGW
HOURLY REGIONAL WEATHER ROUNDUP FOR NORTHEAST MONTANA
NATIONAL WEATHER SERVICE GLASGOW MONTANA
800 PM MDT SAT JUL 04 2015

NOTE: "FAIR" INDICATES FEW OR NO CLOUDS BELOW 12,000 FEET WITH NO
SIGNIFICANT WEATHER AND/OR OBSTRUCTIONS TO VISISBILITY.

NORTHEAST MONTANA


CITY           SKY/WX    TMP DP  RH WIND       PRES   REMARKS
GLASGOW        CLEAR     81  53  37 NE15      29.78R
PLENTYWOOD       N/A     75  55  49 N13G25      N/A
WOLF POINT     CLEAR     83  56  39 NE16      29.77R
JORDAN           N/A     83  60  45 NE22      29.76R
WINNETT          N/A     84  51  31 NE13G23     N/A
SIDNEY         CLEAR     81  63  54 N13G18    29.76R
GLENDIVE       CLEAR     84  57  39 CALM      29.75R
MALTA            N/A     81  51  35 NE13G22     N/A
SCOBEY           N/A     75  52  44 N12G18    29.83R

FORT PECK REPORTS


CITY           SKY/WX    TMP DP  RH WIND       PRES   REMARKS
FORT PECK        N/A     82  56  40 N17         N/A
THE PINES        N/A     81  57  43 NE15G24     N/A

SOUTHEAST MONTANA


CITY           SKY/WX    TMP DP  RH WIND       PRES   REMARKS
BILLINGS       MOCLDY    92  42  17 NE17      29.78R
MILES CITY     CLEAR     88  54  31 SE10      29.72R
BAKER          MOCLDY    76  61  59 SE5       29.78R
LIVINGSTON     MOSUNNY   89  37  16 CALM      29.83R

CENTRAL MONTANA


CITY           SKY/WX    TMP DP  RH WIND       PRES   REMARKS
HAVRE          SUNNY     82  52  35 E17G28    29.75F
LEWISTOWN      MOSUNNY   86  49  27 NE3       29.83S
GREAT FALLS    MOSUNNY   85  48  27 NE9       29.77F
CUT BANK       MOSUNNY   80  49  33 NE13      29.82R
HELENA         PTSUNNY   94  38  14 NW13      29.74S
BUTTE          CLOUDY    86  31  13 NW10      29.91R
BOZEMAN        PTSUNNY   86  46  24 E6        29.82S

WESTERN MONTANA


CITY           SKY/WX    TMP DP  RH WIND       PRES   REMARKS
MISSOULA       MOSUNNY   93  38  14 NW10      29.74S
KALISPELL      NOT AVBL

NORTH DAKOTA


CITY           SKY/WX    TMP DP  RH WIND       PRES   REMARKS
WILLISTON      CLEAR     78  68  71 NE12      29.76R
DICKINSON      MOCLDY    79  62  56 SW8       29.74R
MINOT          CLOUDY    69  65  86 NW6       29.73F
BISMARCK       CLOUDY    81  71  71 SE5       29.71R

SOUTHERN SASKATCHEWAN


CITY           SKY/WX    TMP DP  RH WIND       PRES   REMARKS
REGINA         MOCLDY    70  59  68 N10       29.81R SMOKE
ESTEVAN        CLOUDY    72  63  73 N7        29.79R
SWIFT CURRENT  SUNNY     73  50  43 NE12      29.84F



USA.gov is the U.S. government's official web portal to all federal, state and local government web resources and services.